When you browse on this site, cookies collect data to enhance your experience and personalize the content and advertising you see.
Visit our Privacy Policy to learn more. By continuing to use the site, you agree to this use of cookies and data.
  • en Suisse
  • Liste des pays
  • À 7 jours
  • Température de l'eau
  • Carte satellitaire
  • Carte météo
  • Widgets météo
  • user-avatar
    Se connecter

    Météo par heure à Oran

    Ce jour, 23 Mars, Samedi

    Heure Température Précipitation Vent Pression Humidité
    00:00 +10°C° 0 mm 0 m/s 757 mmHg 90%
    01:00 +10°C° 0 mm 1 m/s 757 mmHg 90%
    02:00 +10°C° 0 mm 1 m/s 757 mmHg 90%
    03:00 +10°C° 0 mm 1 m/s 757 mmHg 90%
    04:00 +10°C° 0 mm 1 m/s 757 mmHg 91%
    05:00 +9°C° 0 mm 2 m/s 757 mmHg 91%
    06:00 +8°C° 0 mm 2 m/s 757 mmHg 91%
    07:00 +10°C° 0 mm 3 m/s 757 mmHg 84%
    08:00 +12°C° 0 mm 3 m/s 757 mmHg 77%
    09:00 +14°C° 0 mm 3 m/s 757 mmHg 70%
    10:00 +17°C° 0 mm 4 m/s 757 mmHg 63%
    11:00 +18°C° 0 mm 4 m/s 757 mmHg 56%
    12:00 +19°C° 0 mm 5 m/s 757 mmHg 49%
    13:00 +19°C° 0 mm 6 m/s 756 mmHg 50%
    14:00 +19°C° 0 mm 6 m/s 756 mmHg 50%
    15:00 +18°C° 0 mm 7 m/s 755 mmHg 51%
    16:00 +17°C° 0 mm 7 m/s 755 mmHg 58%
    17:00 +16°C° 0 mm 7 m/s 754 mmHg 65%
    18:00 +15°C° 0 mm 7 m/s 754 mmHg 72%
    19:00 +14°C° 0 mm 6 m/s 755 mmHg 77%
    20:00 +14°C° 0 mm 6 m/s 755 mmHg 82%
    21:00 +13°C° 0 mm 6 m/s 755 mmHg 87%
    22:00 +13°C° 0 mm 5 m/s 755 mmHg 87%
    23:00 +12°C° 0 mm 4 m/s 755 mmHg 88%

    Demain, 24 Mars, Dimanche

    Heure Température Précipitation Vent Pression Humidité
    00:00 +12°C° 0 mm 4 m/s 755 mmHg 88%
    01:00 +12°C° 0 mm 3 m/s 754 mmHg 85%
    02:00 +12°C° 0 mm 3 m/s 754 mmHg 81%
    03:00 +12°C° 0 mm 3 m/s 754 mmHg 78%
    04:00 +13°C° 0 mm 3 m/s 754 mmHg 73%
    05:00 +13°C° 0 mm 4 m/s 754 mmHg 67%
    06:00 +14°C° 0 mm 4 m/s 753 mmHg 61%
    07:00 +16°C° 0.1 mm 3 m/s 754 mmHg 57%
    08:00 +17°C° 0.1 mm 3 m/s 755 mmHg 53%
    09:00 +18°C° 0.1 mm 3 m/s 755 mmHg 49%
    10:00 +18°C° 0.3 mm 3 m/s 755 mmHg 52%
    11:00 +18°C° 0.3 mm 2 m/s 755 mmHg 55%
    12:00 +18°C° 0.3 mm 2 m/s 755 mmHg 58%
    13:00 +17°C° 0.8 mm 3 m/s 755 mmHg 61%
    14:00 +17°C° 0.8 mm 4 m/s 754 mmHg 64%
    15:00 +16°C° 0.8 mm 5 m/s 753 mmHg 67%
    16:00 +16°C° 0 mm 6 m/s 753 mmHg 67%
    17:00 +16°C° 0 mm 7 m/s 753 mmHg 67%
    18:00 +15°C° 0 mm 7 m/s 753 mmHg 67%
    19:00 +15°C° 0 mm 7 m/s 753 mmHg 67%
    20:00 +15°C° 0 mm 7 m/s 754 mmHg 66%
    21:00 +15°C° 0 mm 7 m/s 754 mmHg 65%
    22:00 +15°C° 0.1 mm 6 m/s 754 mmHg 64%
    23:00 +15°C° 0.1 mm 6 m/s 754 mmHg 62%

    Après-demain, 25 Mars, Lundi

    Heure Température Précipitation Vent Pression Humidité
    00:00 +15°C° 0.1 mm 5 m/s 753 mmHg 60%
    01:00 +15°C° 0 mm 4 m/s 753 mmHg 61%
    02:00 +16°C° 0 mm 3 m/s 753 mmHg 61%
    03:00 +15°C° 0 mm 2 m/s 752 mmHg 61%
    04:00 +14°C° 0 mm 3 m/s 752 mmHg 59%
    05:00 +14°C° 0 mm 4 m/s 752 mmHg 58%
    06:00 +14°C° 0 mm 4 m/s 752 mmHg 57%
    07:00 +16°C° 0 mm 5 m/s 753 mmHg 52%
    08:00 +17°C° 0 mm 5 m/s 753 mmHg 47%
    09:00 +20°C° 0 mm 5 m/s 753 mmHg 42%
    10:00 +22°C° 0 mm 5 m/s 753 mmHg 37%
    11:00 +25°C° 0 mm 5 m/s 753 mmHg 33%
    12:00 +27°C° 0 mm 6 m/s 753 mmHg 28%
    13:00 +27°C° 0 mm 6 m/s 752 mmHg 27%
    14:00 +28°C° 0 mm 6 m/s 751 mmHg 26%
    15:00 +28°C° 0 mm 6 m/s 751 mmHg 26%
    16:00 +27°C° 0 mm 6 m/s 750 mmHg 29%
    17:00 +26°C° 0 mm 7 m/s 750 mmHg 31%
    18:00 +24°C° 0 mm 7 m/s 750 mmHg 34%
    19:00 +22°C° 0 mm 6 m/s 750 mmHg 37%
    20:00 +21°C° 0 mm 6 m/s 751 mmHg 40%
    21:00 +20°C° 0 mm 5 m/s 751 mmHg 43%
    22:00 +20°C° 0 mm 5 m/s 751 mmHg 43%
    23:00 +20°C° 0 mm 5 m/s 751 mmHg 42%

    26 Mars, Mardi

    Heure Température Précipitation Vent Pression Humidité
    00:00 +20°C° 0 mm 4 m/s 750 mmHg 42%
    01:00 +19°C° 0 mm 4 m/s 750 mmHg 43%
    02:00 +19°C° 0 mm 4 m/s 750 mmHg 44%
    03:00 +18°C° 0 mm 4 m/s 749 mmHg 44%
    04:00 +18°C° 0 mm 4 m/s 749 mmHg 44%
    05:00 +18°C° 0 mm 4 m/s 749 mmHg 44%
    06:00 +18°C° 0 mm 4 m/s 749 mmHg 44%
    07:00 +19°C° 0 mm 4 m/s 750 mmHg 42%
    08:00 +20°C° 0 mm 4 m/s 750 mmHg 40%
    09:00 +22°C° 0 mm 4 m/s 750 mmHg 38%
    10:00 +22°C° 0.1 mm 4 m/s 750 mmHg 38%
    11:00 +23°C° 0.1 mm 4 m/s 750 mmHg 37%
    12:00 +25°C° 0.1 mm 4 m/s 750 mmHg 37%
    13:00 +26°C° 0.1 mm 6 m/s 749 mmHg 37%
    14:00 +27°C° 0.1 mm 8 m/s 749 mmHg 37%
    15:00 +27°C° 0.1 mm 10 m/s 748 mmHg 36%
    16:00 +26°C° 0.2 mm 11 m/s 748 mmHg 42%
    17:00 +23°C° 0.2 mm 11 m/s 748 mmHg 48%
    18:00 +21°C° 0.2 mm 12 m/s 748 mmHg 54%
    19:00 +19°C° 0 mm 12 m/s 749 mmHg 58%
    20:00 +18°C° 0 mm 12 m/s 750 mmHg 61%
    21:00 +17°C° 0 mm 12 m/s 750 mmHg 64%
    22:00 +17°C° 0 mm 11 m/s 750 mmHg 64%
    23:00 +17°C° 0 mm 10 m/s 750 mmHg 64%

    27 Mars, Mercredi

    Heure Température Précipitation Vent Pression Humidité
    00:00 +16°C° 0 mm 9 m/s 750 mmHg 64%
    01:00 +16°C° 0.2 mm 8 m/s 750 mmHg 67%
    02:00 +16°C° 0.2 mm 8 m/s 750 mmHg 70%
    03:00 +15°C° 0.2 mm 7 m/s 750 mmHg 73%
    04:00 +15°C° 1.1 mm 7 m/s 750 mmHg 76%
    05:00 +15°C° 1.1 mm 7 m/s 750 mmHg 79%
    06:00 +14°C° 1.1 mm 7 m/s 750 mmHg 83%
    07:00 +15°C° 0.3 mm 7 m/s 750 mmHg 79%
    08:00 +16°C° 0.3 mm 7 m/s 750 mmHg 75%
    09:00 +17°C° 0.3 mm 7 m/s 750 mmHg 72%
    10:00 +18°C° 0.7 mm 8 m/s 750 mmHg 69%
    11:00 +19°C° 0.7 mm 9 m/s 750 mmHg 66%
    12:00 +21°C° 0.7 mm 10 m/s 750 mmHg 63%
    13:00 +19°C° 1.6 mm 10 m/s 749 mmHg 68%
    14:00 +18°C° 1.6 mm 10 m/s 748 mmHg 74%
    15:00 +17°C° 1.6 mm 10 m/s 748 mmHg 79%
    16:00 +17°C° 1.7 mm 10 m/s 748 mmHg 83%
    17:00 +16°C° 1.7 mm 9 m/s 748 mmHg 86%
    18:00 +15°C° 1.7 mm 9 m/s 748 mmHg 90%
    19:00 +15°C° 0.7 mm 8 m/s 749 mmHg 90%
    20:00 +15°C° 0.7 mm 6 m/s 749 mmHg 90%
    21:00 +15°C° 0.7 mm 5 m/s 750 mmHg 90%
    22:00 +15°C° 0.4 mm 4 m/s 750 mmHg 91%
    23:00 +16°C° 0.4 mm 3 m/s 750 mmHg 92%

    28 Mars, Jeudi

    Heure Température Précipitation Vent Pression Humidité
    00:00 +16°C° 0.4 mm 2 m/s 751 mmHg 92%
    01:00 +16°C° 0 mm 2 m/s 751 mmHg 92%
    02:00 +16°C° 0 mm 2 m/s 751 mmHg 92%
    03:00 +16°C° 0 mm 2 m/s 751 mmHg 91%
    04:00 +16°C° 0.1 mm 2 m/s 751 mmHg 91%
    05:00 +16°C° 0.1 mm 3 m/s 751 mmHg 91%
    06:00 +16°C° 0.1 mm 3 m/s 751 mmHg 91%
    07:00 +17°C° 0 mm 3 m/s 752 mmHg 88%
    08:00 +17°C° 0 mm 3 m/s 752 mmHg 84%
    09:00 +18°C° 0 mm 3 m/s 753 mmHg 81%
    10:00 +18°C° 0 mm 3 m/s 753 mmHg 77%
    11:00 +19°C° 0 mm 4 m/s 753 mmHg 73%
    12:00 +20°C° 0 mm 4 m/s 753 mmHg 69%
    13:00 +19°C° 0.1 mm 4 m/s 753 mmHg 72%
    14:00 +19°C° 0.1 mm 5 m/s 753 mmHg 75%
    15:00 +17°C° 0.1 mm 5 m/s 753 mmHg 79%
    16:00 +17°C° 0.1 mm 5 m/s 753 mmHg 80%
    17:00 +16°C° 0.1 mm 6 m/s 753 mmHg 82%
    18:00 +15°C° 0.1 mm 6 m/s 754 mmHg 84%
    19:00 +15°C° 0 mm 5 m/s 754 mmHg 85%
    20:00 +15°C° 0 mm 5 m/s 755 mmHg 85%
    21:00 +14°C° 0 mm 5 m/s 755 mmHg 85%
    22:00 +14°C° 0 mm 5 m/s 755 mmHg 85%
    23:00 +14°C° 0 mm 5 m/s 755 mmHg 86%
    Voir plus